sat.trackr.live / text

‹ back to catalog

STARLINK-32112

NORAD 60136 · 2024-120B

PAYLOAD ACTIVE UNKNOWN

§ Identity

Operator
Country
US
Launch date
2024-06-27
Launch site
AFETR
Launch vehicle
Mass (kg)
RCS (m²)

Purposes: comms

External: N2YO · Heavens-Above · Gunter

§ Orbital elements

Epoch: 2026-05-24T22:05:07.071936Z

Period
94.08 min
Inclination
53.1614°
Eccentricity
0.0001455
Mean motion
15.30655950 rev/d
Perigee alt
472.9 km
Apogee alt
474.9 km
Semi-major
6,852.0 km
B*
1.9994e-3
RAAN
326.1149°
Arg perigee
110.9020°
Mean anomaly
249.2137°
Rev number
10,812

§ Raw data

STARLINK-321121 60136U 24120B   26144.92022074  .00060185  00000+0  19994-2 0  99912 60136  53.1614 326.1149 0001455 110.9020 249.2137 15.30655950108121

JSON: /api/v1/satellites/60136 · /tle

For live sub-satellite position, see the globe view (requires WebGL).

§ Visibility from observer

Set your observer location to see the next 7 days of passes ≥ 10°. The values pass through the URL so the page stays shareable.

No JS? Fill the form by hand. The geolocation button needs JavaScript.